KHHR METAR and TAF | Updated Today

KHHR METAR

Jack Northrop Field Hawthorne Municipal Airport

Observation time: 12 min. ago

KHHR 051953Z 26005KT 10SM CLR 17/09 A3020 RMK AO2 SLP226 T01720094 $

Need help? Read our tutorial on how to read METARs or read the parsed version below.

Jack Northrop Field Hawthorne Municipal Airport (KHHR) METAR

  • Weather conditions on Sun, 05 Feb 2023 19:53:00 +0000 (12 min. ago):
  • Present conditions: Dry
  • Clouds: Clear skies
  • Visibility: 16093 meters
  • Wind: 260 degrees at 5 knots
  • Temperature: 17 celsius
  • Dew point: 9 celsius
  • Pressure: 30.2 inHg
  • Remarks: AO2 SLP226 T01720094 $


Useful to know...

KHHR TAF

Jack Northrop Field Hawthorne Municipal Airport

TAF not found.

Airports near KHHR

KAVX Weather
Region: Avalon

Catalina Airport

Not found in our database
KBUR Weather
IATA: BUR
Region: Burbank

Bob Hope Airport

Found in our database
KCCB Weather
Region: Upland

Cable Airport

Not found in our database
KCNO Weather
Region: Chino

Chino Airport

Not found in our database
KEMT Weather
Region: El Monte

San Gabriel Valley Airport

Not found in our database
KFUL Weather
Region: Fullerton

Fullerton Municipal Airport

Not found in our database